Weather History for Massena, NY

Change the Weather History Date:

Sunday, December 23, 2012

  Actual Average Record
Temperature  
Mean Temperature 22 °F 19 °F  
Max Temperature 25 °F 28 °F 59 °F (1957)
Min Temperature 18 °F 10 °F -24 °F (1955)
Degree Days  
Heating Degree Days 43 46  
Month to date heating degree days 771 950  
Since 1 July heating degree days 2378 2719  
Cooling Degree Days 0 0  
Month to date cooling degree days 0  
Year to date cooling degree days 363  
Moisture  
Dew Point 16 °F    
Average Humidity 78    
Maximum Humidity 88    
Minimum Humidity 67    
Precipitation  
Precipitation 0.03 in 0.07 in 0.94 in (1990)
Month to date precipitation 3.50 1.84  
Year to date precipitation 29.98 34.37  
Sea Level Pressure  
Sea Level Pressure 29.82 in    
Wind  
Wind Speed 7 mph (West)    
Max Wind Speed 17 mph    
Max Gust Speed 23 mph    
Visibility 6 miles    
Events Fog , Snow    
T = Trace of Precipitation, MM = Missing Value Source: NWS Daily Summary

Daily Weather History Graph

Daily Weather History Graph

Search for Another Location

Airport:

Trip Planner

Search our weather history database for the weather conditions in past years. The results will help you decide how hot, cold, wet, or windy it might be!

Date:

Astronomy

Dec. 23, 2012 Rise Set
Actual Time 7:35 AM EST 4:22 PM EST
Civil Twilight 7:01 AM EST 4:55 PM EST
Nautical Twilight 6:24 AM EST 5:33 PM EST
Astronomical Twilight 5:48 AM EST 6:08 PM EST
Moon 1:16 PM EST (12/23) 3:09 AM EST (12/23)
Length of Visible Light 9h 54m
Length of Day
8h 46m
Waxing Gibbous, 81% of the Moon is Illuminated
Dec 23
Waxing Gibbous
Dec 28
Full
Jan 4
Last Quarter
Jan 11
New
Jan 18
First Quarter

Hourly Weather History & Observations

Time (EST) Temp. Windchill Dew Point Humidity Pressure Visibility Wind Dir Wind Speed Gust Speed Precip Events Conditions
12:07 AM 19.4 °F 5.5 °F 12.2 °F 74% 29.81 in 2.5 mi West 15.0 mph 21.9 mph 0.00 in Snow Light Snow
12:24 AM 19.4 °F 6.0 °F 12.2 °F 74% 29.81 in 1.5 mi West 13.8 mph 21.9 mph 0.00 in Snow Light Snow
12:39 AM 19.4 °F 6.0 °F 12.2 °F 74% 29.81 in 2.0 mi West 13.8 mph - 0.00 in Snow Light Snow
12:50 AM 19.4 °F 6.0 °F 12.2 °F 74% 29.81 in 7.0 mi West 13.8 mph - 0.00 in Snow Light Snow
12:53 AM 19.0 °F 5.0 °F 12.0 °F 74% 29.83 in 8.0 mi West 15.0 mph - 0.00 in Snow Light Snow
1:42 AM 19.4 °F 9.5 °F 14.0 °F 80% 29.83 in 2.5 mi West 8.1 mph - 0.00 in Snow Light Snow
1:53 AM 19.0 °F 10.0 °F 14.0 °F 81% 29.86 in 3.0 mi West 6.9 mph - 0.00 in Snow Light Snow
2:53 AM 18.0 °F 4.8 °F 10.0 °F 71% 29.87 in 10.0 mi West 12.7 mph 19.6 mph 0.00 in   Overcast
3:53 AM 18.0 °F 6.1 °F 12.0 °F 78% 29.88 in 6.0 mi West 10.4 mph - 0.00 in Snow Light Snow
4:18 AM 17.6 °F 5.7 °F 10.4 °F 73% 29.85 in 10.0 mi WSW 10.4 mph - 0.00 in   Overcast
4:42 AM 17.6 °F 6.4 °F 10.4 °F 73% 29.85 in 10.0 mi WSW 9.2 mph - 0.00 in   Overcast
4:53 AM 18.0 °F 6.9 °F 10.9 °F 74% 29.87 in 10.0 mi WSW 9.2 mph - 0.00 in   Overcast
5:37 AM 17.6 °F 5.0 °F 10.4 °F 73% 29.86 in 10.0 mi WSW 11.5 mph 21.9 mph N/A   Overcast
5:53 AM 18.0 °F 4.2 °F 10.0 °F 71% 29.88 in 10.0 mi WSW 13.8 mph - N/A   Overcast
6:53 AM 18.0 °F 8.7 °F 10.9 °F 74% 29.88 in 10.0 mi WSW 6.9 mph - N/A   Overcast
7:53 AM 18.0 °F 7.7 °F 10.0 °F 71% 29.87 in 10.0 mi WSW 8.1 mph - N/A   Overcast
8:53 AM 19.0 °F 12.3 °F 10.9 °F 71% 29.87 in 10.0 mi WSW 4.6 mph - N/A   Overcast
9:53 AM 19.0 °F 11.1 °F 12.9 °F 77% 29.87 in 10.0 mi SSW 5.8 mph - N/A   Overcast
10:53 AM 19.9 °F 12.1 °F 15.1 °F 81% 29.85 in 4.0 mi SW 5.8 mph - 0.00 in Snow Light Snow
11:53 AM 21.9 °F 15.7 °F 18.0 °F 85% 29.81 in 5.0 mi SW 4.6 mph - 0.00 in Snow Light Snow
12:36 PM 23.0 °F 14.7 °F 17.6 °F 80% 29.77 in 1.8 mi SW 6.9 mph - 0.00 in Snow Light Snow
12:50 PM 23.0 °F 15.8 °F 17.6 °F 80% 29.77 in 7.0 mi SW 5.8 mph - 0.00 in Snow Light Snow
12:53 PM 23.0 °F 17.0 °F 19.0 °F 85% 29.79 in 7.0 mi SW 4.6 mph - 0.00 in Snow Light Snow
1:53 PM 24.1 °F 18.2 °F 19.9 °F 84% 29.77 in 6.0 mi SW 4.6 mph - 0.00 in Snow Light Snow
2:06 PM 24.8 °F - 19.4 °F 80% 29.75 in 7.0 mi Calm Calm - 0.00 in Snow Light Snow
2:44 PM 24.8 °F - 19.4 °F 80% 29.74 in 1.8 mi Calm Calm - 0.00 in Snow Light Snow
2:53 PM 25.0 °F - 21.0 °F 85% 29.76 in 2.5 mi Calm Calm - 0.00 in Snow Light Snow
3:04 PM 24.8 °F - 21.2 °F 86% 29.74 in 1.8 mi Calm Calm - 0.00 in Snow Light Snow
3:21 PM 24.8 °F - 21.2 °F 86% 29.74 in 3.0 mi Calm Calm - 0.00 in Snow Light Snow
3:32 PM 24.8 °F 20.5 °F 21.2 °F 86% 29.73 in 1.8 mi NE 3.5 mph - 0.00 in Snow Light Snow
3:42 PM 24.8 °F 20.5 °F 21.2 °F 86% 29.74 in 2.0 mi NNE 3.5 mph - 0.00 in Snow Light Snow
3:45 PM 24.8 °F 20.5 °F 21.2 °F 86% 29.74 in 1.2 mi NNE 3.5 mph - 0.00 in Snow Light Snow
3:50 PM 24.8 °F - 21.2 °F 86% 29.74 in 0.5 mi Calm Calm - 0.00 in Fog , Snow Snow
3:53 PM 24.1 °F 19.7 °F 21.9 °F 91% 29.76 in 0.5 mi NNE 3.5 mph - 0.00 in Fog , Snow Snow
4:15 PM 24.8 °F - 21.2 °F 86% 29.75 in 0.2 mi Calm Calm - 0.02 in Fog , Snow Heavy Snow
4:29 PM 24.8 °F - 21.2 °F 86% 29.75 in 1.0 mi Calm Calm - 0.02 in Snow Light Snow
4:40 PM 24.8 °F - 21.2 °F 86% 29.75 in 1.5 mi Calm Calm - 0.02 in Snow Light Snow
4:53 PM 24.1 °F 19.7 °F 21.0 °F 88% 29.78 in 2.5 mi NNE 3.5 mph - 0.02 in Snow Light Snow
5:01 PM 24.8 °F 20.5 °F 21.2 °F 86% 29.76 in 5.0 mi NNE 3.5 mph - 0.00 in Snow Light Snow
5:35 PM 24.8 °F 19.1 °F 21.2 °F 86% 29.78 in 6.0 mi NNW 4.6 mph - 0.00 in Snow Light Snow
5:53 PM 24.1 °F 19.7 °F 19.9 °F 84% 29.81 in 7.0 mi NNW 3.5 mph - 0.00 in Snow Light Snow
6:53 PM 23.0 °F 13.1 °F 19.0 °F 85% 29.85 in 10.0 mi WNW 9.2 mph - 0.00 in   Overcast
7:53 PM 21.0 °F 11.4 °F 16.0 °F 81% 29.87 in 10.0 mi West 8.1 mph - N/A   Overcast
8:19 PM 19.4 °F 12.8 °F 15.8 °F 86% 29.85 in 10.0 mi West 4.6 mph - N/A   Mostly Cloudy
8:53 PM 19.0 °F 12.3 °F 14.0 °F 81% 29.89 in 10.0 mi West 4.6 mph - 0.01 in   Mostly Cloudy
9:53 PM 19.9 °F 11.1 °F 15.1 °F 81% 29.92 in 10.0 mi West 6.9 mph - N/A   Overcast
10:53 PM 19.9 °F 12.1 °F 14.0 °F 78% 29.94 in 10.0 mi West 5.8 mph - N/A   Overcast
11:53 PM 18.0 °F 5.4 °F 10.9 °F 74% 29.97 in 10.0 mi West 11.5 mph - 0.00 in   Overcast